STARLINK-33750, 63513

Orbit data source: Space-Track

STARLINK-33750, 63513 is a payload satellite owned by SpaceX/Seattle (US) in LEO that was launched on Mon, 07 Apr 2025 UTC via an FALCON 9 launch vehicle from the Air Force Western Test Range (AFWTR). Payload-class satellites include a variety of spacecraft equipped with specific instruments for various scientific and technological missions. These include communications satellites like Starlink; space stations such as the ISS; scientific satellites like the Hubble; Earth observation satellites from companies like Planet Labs, Umbra, and HawkEye 360; GPS; miniature CubeSats for education and research; and military/defense satellites.

Loading next visibility...
Identifier
63513, 2025-071W
Orbit
LEO
Country
Flag of USUS
Related business
Manufacturer
SpaceX/Seattle
Mission
Operational Commercial Communications
Bus & Motor
STARLINK V2MO, Unknown motor
Mass
575 kg wet, ~530 kg dry
Launch date (UTC)
2025-04-07 (5 months ago)
Launch vehicle
FALCON 9
Launch site
Air Force Western Test Range (AFWTR)
Object type
Payload
Rocket body
Debris
Shape & HBR
Box + 1 Pan, 14.5 m
Radar Cross Section
41.120 m², Large (>1 m²)

Expand to show TLE details & history
Last TLE update: 21 hours ago

TLE from 21 hours ago
0 STARLINK-33750
1 63513U 25071W   25258.23174041  .00056035  00000-0  18880-2 0  9993
2 63513  53.1513 235.0682 0001236  87.5333 272.5809 15.30231241 25883
Epoch: 2025-09-15T05:33Z
TLE epoch observation values (Epoch: 2025-09-15T05:33:42.371Z)
Latitude
-0.00003°
Longitude
157.20228°
Altitude
475.983 km
Speed
7.629 km/s
True Right ascension
15h 40m 16s
True Declination
0° 00' 00"
Sunlit
Object was in daylight at epoch
Visualization orbit readout
Latitude
Unknown
Longitude
Unknown
Altitude
Unknown
Speed
Unknown
Apparent Right ascension
Unknown
Apparent Declination
Unknown
Sunlit
N/A
Visualization observer readout
Local Sidereal Time
19:09:16
Azimuth
Unknown
Elevation
Unknown
Doppler factor
Unknown
Orbital elements
Apogee altitude
476.227 km
Perigee altitude
474.533 km
Semi-major axis
6,853.517 km
Eccentricity
0.00012
Inclination
53.1513°
RAAN
235.0682°
Arg. of periapsis
87.5333°
True anomaly
272.56675°
Mean anomaly
272.5809°
Eccentric anomaly
272.57383°
Mean motion
3.82537 °/min
Orbital period
94.11 mins
BSTAR
0.001888
Loading maneuver chart data...
Computing Atmospheric mass density...
Loading historical data...
Loading historical data...
Loading historical data...
Loading historical data...
Loading historical data...
Loading historical data...
Loading historical data...

Documentation

Showing up to 5 results
|